Location: Etzleinsberg
(48.4833°N, 14.0333°E)
Time: 03:59:44
(UTC+00:00)

STARLINK-48 - Pass Details

Date: 07 June 2020
Orbit: 505 x 506 km, 53.0° (Epoch: 14 July)

Event Time Altitude Azimuth Distance (km) Brightness Sun altitude
Exits shadow 00:17:19 35° 170° (S) 833 4.1 -16.8°
Maximum altitude 00:18:03 39° 143° (SE) 774 4.1 -16.8°
Drops below altitude 10° 00:21:42 10° 73° (ENE) 1,725 6.6 -16.6°
Sets 00:23:59 0° 66° (ENE) 2,613 7.8 -16.5°
